| time (UTC) | temp F | wind direction | speed knots | gust knots | rain 1hr in | rain 24hr in | rain mn in | humidity % | barometer mb |
| 20260507125944 | 56 | 23 | 3.5 | 9.6 | 0.00 | 0.23 | 0.03 | 58 | 1009.6 |
| 20260507125443 | 56 | 9 | 2.6 | 8.7 | 0.00 | 0.23 | 0.03 | 58 | 1009.6 |
| 20260507124943 | 56 | 56 | 3.5 | 7.8 | 0.00 | 0.23 | 0.03 | 58 | 1009.8 |
| 20260507124446 | 56 | 24 | 2.6 | 7.0 | 0.00 | 0.23 | 0.03 | 58 | 1009.8 |
| 20260507123938 | 56 | 71 | 2.6 | 6.1 | 0.00 | 0.23 | 0.03 | 58 | 1009.9 |
| 20260507123437 | 56 | 4 | 2.6 | 7.0 | 0.00 | 0.23 | 0.03 | 59 | 1010.1 |
| 20260507122434 | 56 | 17 | 1.7 | 8.7 | 0.00 | 0.23 | 0.03 | 60 | 1009.8 |
| 20260507121935 | 57 | 24 | 1.7 | 6.1 | 0.00 | 0.23 | 0.03 | 63 | 1009.7 |
| 20260507121434 | 56 | 23 | 2.6 | 7.8 | 0.00 | 0.23 | 0.03 | 63 | 1009.7 |
| 20260507120928 | 56 | 29 | 3.5 | 7.8 | 0.00 | 0.23 | 0.03 | 63 | 1009.5 |
| 20260507120428 | 56 | 0 | 2.6 | 9.6 | 0.00 | 0.23 | 0.03 | 64 | 1009.7 |
| 20260507115926 | 56 | 24 | 2.6 | 9.6 | 0.00 | 0.23 | 0.03 | 66 | 1009.7 |
| 20260507115427 | 56 | 294 | 2.6 | 8.7 | 0.00 | 0.23 | 0.03 | 70 | 1009.6 |
| 20260507114927 | 56 | 91 | 4.3 | 10.4 | 0.00 | 0.23 | 0.03 | 71 | 1009.4 |
| 20260507114428 | 56 | 40 | 2.6 | 10.4 | 0.00 | 0.23 | 0.03 | 73 | 1009.3 |
| 20260507113928 | 57 | 23 | 0.0 | 2.6 | 0.00 | 0.23 | 0.03 | 78 | 1009.3 |
| 20260507113424 | 57 | 359 | 0.0 | 2.6 | 0.00 | 0.23 | 0.03 | 79 | 1009.4 |
| 20260507112924 | 56 | 332 | 0.9 | 4.3 | 0.00 | 0.23 | 0.03 | 80 | 1009.5 |
| 20260507112422 | 56 | 83 | 0.9 | 4.3 | 0.00 | 0.23 | 0.03 | 80 | 1009.5 |
| 20260507111922 | 56 | 281 | 0.9 | 4.3 | 0.00 | 0.23 | 0.03 | 81 | 1009.3 |
| 20260507111421 | 56 | 34 | 0.9 | 4.3 | 0.00 | 0.23 | 0.03 | 81 | 1009.3 |
| 20260507110920 | 56 | 86 | 0.9 | 5.2 | 0.00 | 0.23 | 0.03 | 81 | 1009.1 |
| 20260507110413 | 56 | 34 | 0.9 | 5.2 | 0.00 | 0.23 | 0.03 | 82 | 1009.2 |
| 20260507105912 | 56 | 68 | 0.0 | 1.7 | 0.00 | 0.23 | 0.03 | 83 | 1009.3 |
| 20260507105411 | 56 | 8 | 0.0 | 2.6 | 0.00 | 0.23 | 0.03 | 83 | 1009.2 |
| 20260507104910 | 56 | 79 | 0.9 | 3.5 | 0.00 | 0.23 | 0.03 | 83 | 1009.0 |
| 20260507103907 | 56 | 44 | 0.9 | 3.5 | 0.00 | 0.23 | 0.03 | 82 | 1009.0 |
| 20260507103404 | 56 | 94 | 0.9 | 5.2 | 0.00 | 0.23 | 0.03 | 83 | 1009.0 |
| 20260507102902 | 56 | 46 | 1.7 | 5.2 | 0.00 | 0.23 | 0.03 | 83 | 1008.9 |
| 20260507102405 | 56 | 46 | 1.7 | 5.2 | 0.00 | 0.23 | 0.03 | 83 | 1008.9 |
| 20260507101905 | 56 | 41 | 1.7 | 4.3 | 0.00 | 0.23 | 0.03 | 83 | 1008.8 |
| 20260507101404 | 56 | 71 | 1.7 | 6.1 | 0.00 | 0.23 | 0.03 | 83 | 1008.7 |
| 20260507100904 | 56 | 76 | 1.7 | 6.1 | 0.00 | 0.23 | 0.03 | 83 | 1008.8 |
| 20260507095400 | 56 | 91 | 0.9 | 2.6 | 0.00 | 0.23 | 0.03 | 83 | 1008.7 |
| 20260507094359 | 56 | 23 | 0.9 | 3.5 | 0.00 | 0.23 | 0.03 | 83 | 1008.7 |
| 20260507093858 | 56 | 11 | 1.7 | 6.1 | 0.00 | 0.23 | 0.03 | 83 | 1008.7 |
| 20260507092359 | 56 | 88 | 1.7 | 7.0 | 0.00 | 0.23 | 0.03 | 83 | 1008.3 |
| 20260507091900 | 56 | 97 | 0.9 | 5.2 | 0.00 | 0.23 | 0.03 | 83 | 1008.5 |
| 20260507091359 | 56 | 36 | 1.7 | 5.2 | 0.00 | 0.23 | 0.03 | 83 | 1008.6 |
| 20260507090856 | 56 | 19 | 1.7 | 6.1 | 0.00 | 0.23 | 0.03 | 83 | 1008.7 |
| 20260507090358 | 56 | 110 | 1.7 | 6.1 | 0.00 | 0.23 | 0.03 | 83 | 1008.6 |
| 20260507085852 | 56 | 60 | 1.7 | 5.2 | 0.00 | 0.23 | 0.03 | 83 | 1008.6 |
| 20260507085346 | 56 | 86 | 1.7 | 7.8 | 0.00 | 0.23 | 0.03 | 83 | 1008.6 |
| 20260507084841 | 56 | 97 | 2.6 | 7.8 | 0.00 | 0.23 | 0.03 | 83 | 1008.4 |
| 20260507084340 | 56 | 46 | 1.7 | 6.1 | 0.00 | 0.23 | 0.03 | 83 | 1008.3 |
| 20260507083842 | 57 | 27 | 1.7 | 7.8 | 0.00 | 0.23 | 0.03 | 84 | 1008.4 |
| 20260507083341 | 57 | 99 | 2.6 | 7.8 | 0.00 | 0.23 | 0.03 | 84 | 1008.6 |
| 20260507082840 | 57 | 8 | 1.7 | 7.8 | 0.00 | 0.23 | 0.03 | 85 | 1008.5 |
| 20260507082343 | 57 | 20 | 0.9 | 7.8 | 0.00 | 0.23 | 0.03 | 86 | 1008.3 |
| 20260507081842 | 57 | 103 | 0.9 | 2.6 | 0.00 | 0.23 | 0.03 | 86 | 1008.2 |
| 20260507080829 | 57 | 70 | 0.9 | 3.5 | 0.00 | 0.23 | 0.03 | 86 | 1007.9 |
| 20260507080325 | 57 | 38 | 1.7 | 6.1 | 0.00 | 0.23 | 0.03 | 85 | 1007.8 |
| 20260507075327 | 57 | 62 | 2.6 | 7.0 | 0.00 | 0.23 | 0.03 | 85 | 1007.7 |
| 20260507074825 | 57 | 24 | 2.6 | 7.0 | 0.00 | 0.23 | 0.03 | 85 | 1007.7 |
| 20260507074325 | 58 | 43 | 1.7 | 7.0 | 0.00 | 0.23 | 0.03 | 84 | 1007.7 |
| 20260507073827 | 58 | 49 | 1.7 | 7.0 | 0.00 | 0.23 | 0.03 | 83 | 1007.5 |
| 20260507073320 | 58 | 79 | 1.7 | 7.8 | 0.00 | 0.23 | 0.03 | 83 | 1007.5 |
| 20260507072814 | 58 | 336 | 2.6 | 9.6 | 0.00 | 0.23 | 0.03 | 82 | 1007.4 |
| 20260507072314 | 58 | 64 | 2.6 | 9.6 | 0.00 | 0.23 | 0.03 | 84 | 1007.5 |
| 20260507071815 | 58 | 18 | 2.6 | 7.0 | 0.00 | 0.23 | 0.03 | 85 | 1007.5 |
| 20260507071315 | 58 | 70 | 2.6 | 7.0 | 0.00 | 0.23 | 0.03 | 86 | 1007.5 |
| 20260507070816 | 58 | 32 | 1.7 | 7.0 | 0.00 | 0.23 | 0.03 | 86 | 1007.4 |
| 20260507070316 | 58 | 31 | 0.9 | 5.2 | 0.00 | 0.23 | 0.03 | 87 | 1007.5 |
| 20260507065810 | 58 | 53 | 0.9 | 7.0 | 0.01 | 0.23 | 0.03 | 88 | 1007.4 |
| 20260507065310 | 58 | 65 | 1.7 | 7.0 | 0.01 | 0.23 | 0.03 | 88 | 1007.3 |
| 20260507064812 | 58 | 65 | 1.7 | 5.2 | 0.01 | 0.23 | 0.03 | 89 | 1007.5 |
| 20260507064312 | 58 | 333 | 1.7 | 7.0 | 0.01 | 0.23 | 0.03 | 89 | 1007.5 |
| 20260507063810 | 58 | 32 | 1.7 | 7.0 | 0.01 | 0.23 | 0.03 | 89 | 1007.6 |
| 20260507063312 | 58 | 113 | 0.9 | 4.3 | 0.01 | 0.23 | 0.03 | 89 | 1007.5 |
| 20260507062806 | 58 | 340 | 1.7 | 7.8 | 0.01 | 0.23 | 0.03 | 89 | 1007.4 |
| 20260507062308 | 58 | 329 | 1.7 | 7.8 | 0.01 | 0.23 | 0.03 | 89 | 1007.3 |
| 20260507061807 | 58 | 69 | 2.6 | 7.0 | 0.01 | 0.23 | 0.03 | 89 | 1007.2 |
| 20260507060808 | 59 | 12 | 0.9 | 7.8 | 0.01 | 0.23 | 0.03 | 88 | 1007.3 |
| 20260507060310 | 59 | 91 | 0.9 | 4.3 | 0.01 | 0.23 | 0.03 | 88 | 1007.2 |
| 20260507055804 | 59 | 23 | 0.9 | 4.3 | 0.00 | 0.22 | 0.02 | 87 | 1007.5 |
| 20260507055306 | 59 | 71 | 0.9 | 3.5 | 0.00 | 0.22 | 0.02 | 87 | 1007.5 |
| 20260507054817 | 60 | 346 | 1.7 | 8.7 | 0.00 | 0.22 | 0.02 | 86 | 1007.5 |
| 20260507054303 | 60 | 23 | 2.6 | 8.7 | 0.01 | 0.22 | 0.02 | 85 | 1007.3 |
| 20260507053802 | 60 | 32 | 2.6 | 7.8 | 0.01 | 0.22 | 0.02 | 86 | 1007.5 |
| 20260507053304 | 60 | 32 | 1.7 | 7.8 | 0.02 | 0.22 | 0.02 | 86 | 1007.6 |
| 20260507052300 | 60 | 12 | 1.7 | 5.2 | 0.02 | 0.22 | 0.02 | 85 | 1007.1 |
| 20260507051759 | 60 | 91 | 0.9 | 4.3 | 0.02 | 0.22 | 0.02 | 84 | 1006.8 |
| 20260507051258 | 60 | 53 | 0.9 | 4.3 | 0.02 | 0.22 | 0.02 | 84 | 1007.2 |
| 20260507050759 | 61 | 85 | 0.9 | 4.3 | 0.02 | 0.22 | 0.02 | 84 | 1007.5 |
| 20260507050259 | 61 | 27 | 0.9 | 6.1 | 0.02 | 0.22 | 0.02 | 83 | 1007.7 |
| 20260507045754 | 61 | 345 | 0.9 | 6.1 | 0.02 | 0.22 | 0.02 | 82 | 1007.6 |
| 20260507045255 | 61 | 309 | 0.9 | 3.5 | 0.02 | 0.22 | 0.02 | 82 | 1007.5 |
| 20260507044755 | 62 | 311 | 0.0 | 3.5 | 0.02 | 0.22 | 0.02 | 80 | 1007.7 |
| 20260507044255 | 62 | 76 | 0.9 | 5.2 | 0.01 | 0.21 | 0.01 | 79 | 1007.3 |
| 20260507043754 | 62 | 76 | 1.7 | 5.2 | 0.01 | 0.21 | 0.01 | 78 | 1007.5 |
| 20260507042750 | 63 | 300 | 1.7 | 6.1 | 0.00 | 0.20 | 0.00 | 75 | 1007.7 |
| 20260507042251 | 63 | 24 | 2.6 | 8.7 | 0.00 | 0.20 | 0.00 | 74 | 1007.5 |
| 20260507041752 | 63 | 43 | 1.7 | 8.7 | 0.00 | 0.20 | 0.00 | 77 | 1007.5 |
| 20260507041252 | 63 | 37 | 0.9 | 4.3 | 0.00 | 0.20 | 0.00 | 81 | 1007.6 |
| 20260507040750 | 63 | 65 | 0.9 | 4.3 | 0.00 | 0.20 | 0.00 | 81 | 1007.3 |
| 20260507040252 | 63 | 324 | 0.9 | 5.2 | 0.00 | 0.20 | 0.00 | 81 | 1007.3 |
| 20260507035745 | 64 | 24 | 1.7 | 5.2 | 0.00 | 0.20 | 0.20 | 81 | 1007.1 |
| 20260507035247 | 64 | 348 | 2.6 | 6.1 | 0.00 | 0.20 | 0.20 | 80 | 1006.9 |
| 20260507034746 | 65 | 350 | 2.6 | 6.1 | 0.00 | 0.20 | 0.20 | 79 | 1007.1 |
| 20260507034248 | 65 | 5 | 3.5 | 8.7 | 0.00 | 0.20 | 0.20 | 77 | 1007.1 |
| 20260507033745 | 65 | 29 | 2.6 | 9.6 | 0.00 | 0.20 | 0.20 | 75 | 1007.1 |
| 20260507033247 | 66 | 11 | 1.7 | 9.6 | 0.00 | 0.20 | 0.20 | 74 | 1007.2 |
| 20260507032742 | 66 | 82 | 0.9 | 3.5 | 0.00 | 0.20 | 0.20 | 73 | 1006.9 |
| 20260507032242 | 66 | 342 | 0.9 | 5.2 | 0.00 | 0.20 | 0.20 | 73 | 1007.0 |
| 20260507031745 | 66 | 340 | 1.7 | 6.1 | 0.00 | 0.20 | 0.20 | 73 | 1006.9 |
| 20260507031243 | 66 | 322 | 1.7 | 7.8 | 0.00 | 0.20 | 0.20 | 72 | 1006.6 |
| 20260507030741 | 66 | 339 | 2.6 | 7.8 | 0.00 | 0.20 | 0.20 | 73 | 1006.4 |
| 20260507025737 | 66 | 53 | 2.6 | 8.7 | 0.00 | 0.20 | 0.20 | 75 | 1006.5 |
| 20260507025238 | 66 | 341 | 3.5 | 9.6 | 0.00 | 0.20 | 0.20 | 75 | 1006.6 |
| 20260507024738 | 67 | 30 | 4.3 | 9.6 | 0.00 | 0.20 | 0.20 | 75 | 1006.7 |
| 20260507024237 | 67 | 49 | 3.5 | 12.2 | 0.00 | 0.20 | 0.20 | 76 | 1006.6 |
| 20260507023735 | 67 | 15 | 2.6 | 12.2 | 0.00 | 0.20 | 0.20 | 76 | 1006.4 |
| 20260507022731 | 68 | 31 | 2.6 | 7.8 | 0.00 | 0.20 | 0.20 | 77 | 1006.1 |
| 20260507022233 | 68 | 24 | 3.5 | 7.8 | 0.00 | 0.20 | 0.20 | 78 | 1006.1 |
| 20260507021730 | 68 | 1 | 3.5 | 7.8 | 0.00 | 0.20 | 0.20 | 78 | 1006.3 |
| 20260507021231 | 68 | 11 | 3.5 | 8.7 | 0.00 | 0.20 | 0.20 | 78 | 1006.1 |
| 20260507020731 | 68 | 37 | 2.6 | 8.7 | 0.00 | 0.20 | 0.20 | 79 | 1006.0 |
| 20260507020230 | 69 | 41 | 1.7 | 7.0 | 0.00 | 0.20 | 0.20 | 81 | 1005.9 |
| 20260507015728 | 70 | 62 | 0.9 | 6.1 | 0.00 | 0.20 | 0.20 | 80 | 1005.9 |
| 20260507015228 | 70 | 327 | 0.9 | 5.2 | 0.00 | 0.20 | 0.20 | 79 | 1005.9 |
| 20260507014225 | 70 | 250 | 0.0 | 0.0 | 0.00 | 0.20 | 0.20 | 79 | 1005.8 |
| 20260507013725 | 70 | 250 | 0.0 | 0.0 | 0.00 | 0.20 | 0.20 | 79 | 1005.9 |
| 20260507013218 | 70 | 251 | 0.9 | 2.6 | 0.00 | 0.20 | 0.20 | 79 | 1006.0 |
| 20260507012716 | 70 | 210 | 0.9 | 3.5 | 0.00 | 0.20 | 0.20 | 79 | 1005.9 |
| 20260507012215 | 70 | 209 | 0.9 | 3.5 | 0.00 | 0.20 | 0.20 | 78 | 1006.1 |
| 20260507011715 | 70 | 214 | 0.0 | 1.7 | 0.00 | 0.20 | 0.20 | 78 | 1006.1 |
| 20260507011216 | 70 | 229 | 0.0 | 0.9 | 0.00 | 0.20 | 0.20 | 78 | 1006.1 |
| 20260507010711 | 70 | 233 | 0.0 | 0.9 | 0.00 | 0.20 | 0.20 | 78 | 1006.2 |
| 20260507010213 | 70 | 229 | 0.0 | 1.7 | 0.00 | 0.20 | 0.20 | 78 | 1006.2 |
| 20260507005713 | 70 | 235 | 0.9 | 3.5 | 0.00 | 0.20 | 0.20 | 78 | 1006.1 |
| 20260507005211 | 70 | 225 | 0.9 | 3.5 | 0.00 | 0.20 | 0.20 | 78 | 1006.0 |
| 20260507004210 | 70 | 217 | 0.0 | 1.7 | 0.00 | 0.20 | 0.20 | 79 | 1005.8 |
| 20260507003709 | 70 | 207 | 0.0 | 1.7 | 0.00 | 0.20 | 0.20 | 79 | 1005.8 |
| 20260507003209 | 70 | 204 | 0.0 | 1.7 | 0.00 | 0.20 | 0.20 | 79 | 1005.9 |
| 20260507002201 | 70 | 221 | 0.0 | 1.7 | 0.00 | 0.20 | 0.20 | 78 | 1005.7 |
| 20260507001701 | 70 | 212 | 0.0 | 1.7 | 0.00 | 0.20 | 0.20 | 78 | 1005.6 |
| 20260507001158 | 70 | 248 | 0.0 | 2.6 | 0.00 | 0.20 | 0.20 | 78 | 1005.6 |
| 20260507000659 | 70 | 212 | 0.0 | 2.6 | 0.00 | 0.20 | 0.20 | 78 | 1005.6 |
| 20260507000158 | 70 | 296 | 0.0 | 3.5 | 0.00 | 0.20 | 0.20 | 78 | 1005.7 |
| 20260506235655 | 70 | 309 | 0.0 | 3.5 | 0.00 | 0.20 | 0.20 | 78 | 1005.6 |
| 20260506235153 | 70 | 200 | 0.9 | 3.5 | 0.00 | 0.20 | 0.20 | 78 | 1005.5 |
| 20260506234152 | 70 | 228 | 0.9 | 4.3 | 0.00 | 0.20 | 0.20 | 78 | 1005.3 |
| 20260506233649 | 70 | 215 | 0.0 | 4.3 | 0.00 | 0.20 | 0.20 | 78 | 1005.3 |
| 20260506233150 | 70 | 204 | 0.9 | 5.2 | 0.00 | 0.20 | 0.20 | 78 | 1005.3 |
| 20260506232149 | 70 | 188 | 1.7 | 5.2 | 0.00 | 0.20 | 0.20 | 78 | 1005.3 |
| 20260506231646 | 70 | 222 | 1.7 | 4.3 | 0.00 | 0.20 | 0.20 | 78 | 1005.1 |
| 20260506231145 | 70 | 203 | 1.7 | 5.2 | 0.00 | 0.20 | 0.20 | 77 | 1005.1 |
| 20260506230641 | 70 | 257 | 0.9 | 5.2 | 0.00 | 0.20 | 0.20 | 78 | 1005.2 |
| 20260506230142 | 70 | 174 | 1.7 | 7.0 | 0.00 | 0.20 | 0.20 | 77 | 1005.0 |
| 20260506225643 | 70 | 207 | 2.6 | 7.0 | 0.00 | 0.20 | 0.20 | 77 | 1004.9 |
| 20260506224643 | 70 | 180 | 2.6 | 6.1 | 0.00 | 0.20 | 0.20 | 78 | 1005.0 |
| 20260506223636 | 70 | 172 | 3.5 | 7.8 | 0.00 | 0.20 | 0.20 | 77 | 1005.1 |
| 20260506223135 | 71 | 245 | 3.5 | 11.3 | 0.00 | 0.20 | 0.20 | 76 | 1005.1 |
| 20260506222633 | 71 | 238 | 3.5 | 11.3 | 0.00 | 0.20 | 0.20 | 76 | 1004.8 |
| 20260506222132 | 71 | 219 | 2.6 | 8.7 | 0.00 | 0.20 | 0.20 | 76 | 1004.9 |
| 20260506221125 | 71 | 177 | 4.3 | 9.6 | 0.00 | 0.20 | 0.20 | 76 | 1005.0 |
| 20260506220127 | 71 | 206 | 3.5 | 10.4 | 0.00 | 0.20 | 0.20 | 76 | 1004.9 |
| 20260506215625 | 71 | 260 | 2.6 | 9.6 | 0.00 | 0.20 | 0.20 | 76 | 1005.0 |
| 20260506215126 | 71 | 173 | 3.5 | 11.3 | 0.00 | 0.20 | 0.20 | 76 | 1004.9 |
| 20260506214626 | 71 | 235 | 4.3 | 11.3 | 0.00 | 0.20 | 0.20 | 76 | 1005.0 |
| 20260506214127 | 71 | 205 | 4.3 | 12.2 | 0.00 | 0.20 | 0.20 | 76 | 1005.1 |
| 20260506213619 | 71 | 153 | 3.5 | 12.2 | 0.00 | 0.20 | 0.20 | 75 | 1005.1 |
| 20260506213119 | 71 | 204 | 2.6 | 12.2 | 0.00 | 0.20 | 0.20 | 76 | 1005.0 |
| 20260506212619 | 71 | 263 | 5.2 | 13.9 | 0.00 | 0.20 | 0.20 | 76 | 1005.0 |
| 20260506212120 | 71 | 177 | 5.2 | 13.9 | 0.00 | 0.20 | 0.20 | 75 | 1004.8 |
| 20260506211120 | 71 | 179 | 3.5 | 9.6 | 0.00 | 0.20 | 0.20 | 75 | 1004.9 |
| 20260506210620 | 71 | 203 | 3.5 | 9.6 | 0.00 | 0.20 | 0.20 | 75 | 1004.7 |
| 20260506210115 | 71 | 204 | 4.3 | 11.3 | 0.00 | 0.20 | 0.20 | 75 | 1004.6 |
| 20260506205615 | 71 | 153 | 4.3 | 11.3 | 0.00 | 0.20 | 0.20 | 75 | 1004.6 |
| 20260506205114 | 71 | 187 | 4.3 | 11.3 | 0.00 | 0.20 | 0.20 | 75 | 1004.7 |
| 20260506204613 | 71 | 221 | 3.5 | 8.7 | 0.00 | 0.20 | 0.20 | 75 | 1004.6 |
| 20260506204113 | 71 | 333 | 4.3 | 9.6 | 0.00 | 0.20 | 0.20 | 75 | 1004.6 |
| 20260506203613 | 71 | 250 | 4.3 | 10.4 | 0.00 | 0.20 | 0.20 | 75 | 1004.4 |
| 20260506203114 | 71 | 359 | 4.3 | 10.4 | 0.00 | 0.20 | 0.20 | 75 | 1004.5 |
| 20260506202610 | 71 | 219 | 4.3 | 10.4 | 0.00 | 0.20 | 0.20 | 74 | 1004.6 |
| 20260506202110 | 71 | 201 | 3.5 | 12.2 | 0.00 | 0.20 | 0.20 | 75 | 1004.6 |
| 20260506201609 | 71 | 243 | 4.3 | 12.2 | 0.00 | 0.20 | 0.20 | 76 | 1004.5 |
| 20260506201109 | 70 | 208 | 6.1 | 13.0 | 0.00 | 0.20 | 0.20 | 77 | 1004.6 |
| 20260506200111 | 70 | 255 | 4.3 | 11.3 | 0.00 | 0.20 | 0.20 | 76 | 1004.8 |
| 20260506195610 | 70 | 212 | 4.3 | 10.4 | 0.00 | 0.20 | 0.20 | 76 | 1004.7 |
| 20260506195103 | 70 | 206 | 4.3 | 10.4 | 0.00 | 0.20 | 0.20 | 77 | 1004.8 |
| 20260506194603 | 70 | 158 | 4.3 | 10.4 | 0.00 | 0.20 | 0.20 | 76 | 1004.8 |
| 20260506194104 | 70 | 255 | 5.2 | 11.3 | 0.00 | 0.20 | 0.20 | 77 | 1004.8 |
| 20260506193605 | 70 | 238 | 4.3 | 11.3 | 0.00 | 0.20 | 0.20 | 76 | 1004.8 |
| 20260506193103 | 70 | 226 | 4.3 | 15.6 | 0.00 | 0.20 | 0.20 | 77 | 1004.7 |
| 20260506192603 | 70 | 199 | 6.1 | 15.6 | 0.00 | 0.20 | 0.20 | 76 | 1005.0 |
| 20260506192100 | 70 | 330 | 6.1 | 15.6 | 0.00 | 0.20 | 0.20 | 76 | 1004.8 |
| 20260506191557 | 70 | 172 | 5.2 | 15.6 | 0.00 | 0.20 | 0.20 | 76 | 1004.9 |
| 20260506191057 | 70 | 225 | 4.3 | 13.0 | 0.00 | 0.20 | 0.20 | 77 | 1005.1 |
| 20260506190557 | 69 | 202 | 2.6 | 12.2 | 0.00 | 0.20 | 0.20 | 77 | 1005.1 |
| 20260506190058 | 69 | 191 | 4.3 | 12.2 | 0.00 | 0.20 | 0.20 | 78 | 1005.1 |
| 20260506185558 | 69 | 326 | 5.2 | 13.9 | 0.00 | 0.20 | 0.20 | 78 | 1005.2 |
| 20260506185057 | 69 | 204 | 5.2 | 13.9 | 0.00 | 0.20 | 0.20 | 78 | 1005.3 |
| 20260506184555 | 69 | 231 | 4.3 | 13.0 | 0.00 | 0.20 | 0.20 | 78 | 1005.2 |
| 20260506183555 | 69 | 221 | 4.3 | 9.6 | 0.00 | 0.20 | 0.20 | 78 | 1005.3 |
| 20260506183053 | 69 | 160 | 4.3 | 11.3 | 0.00 | 0.20 | 0.20 | 78 | 1005.4 |
| 20260506182553 | 69 | 210 | 3.5 | 11.3 | 0.00 | 0.20 | 0.20 | 78 | 1005.5 |
| 20260506182053 | 69 | 233 | 3.5 | 9.6 | 0.00 | 0.20 | 0.20 | 78 | 1005.5 |
| 20260506181556 | 69 | 229 | 4.3 | 13.9 | 0.00 | 0.20 | 0.20 | 78 | 1005.5 |
| 20260506181052 | 69 | 271 | 5.2 | 14.8 | 0.00 | 0.20 | 0.20 | 78 | 1005.5 |
| 20260506180554 | 69 | 236 | 5.2 | 14.8 | 0.00 | 0.20 | 0.20 | 78 | 1005.7 |
| 20260506180049 | 69 | 155 | 4.3 | 13.0 | 0.00 | 0.20 | 0.20 | 78 | 1005.6 |
| 20260506175549 | 69 | 192 | 3.5 | 11.3 | 0.00 | 0.20 | 0.20 | 79 | 1005.6 |
| 20260506175050 | 68 | 212 | 4.3 | 13.9 | 0.00 | 0.20 | 0.20 | 81 | 1005.7 |
| 20260506174550 | 67 | 5 | 5.2 | 13.9 | 0.00 | 0.20 | 0.20 | 80 | 1005.9 |
| 20260506174051 | 67 | 203 | 3.5 | 9.6 | 0.00 | 0.20 | 0.20 | 81 | 1005.8 |
| 20260506173545 | 67 | 239 | 3.5 | 11.3 | 0.00 | 0.20 | 0.20 | 81 | 1005.8 |
| 20260506173046 | 67 | 210 | 5.2 | 11.3 | 0.00 | 0.20 | 0.20 | 82 | 1005.8 |
| 20260506172546 | 67 | 248 | 5.2 | 13.9 | 0.00 | 0.20 | 0.20 | 82 | 1005.8 |
| 20260506172047 | 66 | 221 | 5.2 | 13.9 | 0.00 | 0.20 | 0.20 | 82 | 1005.8 |
| 20260506171545 | 66 | 238 | 5.2 | 14.8 | 0.00 | 0.20 | 0.20 | 82 | 1006.0 |
| 20260506171044 | 66 | 195 | 5.2 | 14.8 | 0.00 | 0.20 | 0.20 | 83 | 1005.9 |
| 20260506170537 | 66 | 243 | 6.1 | 17.4 | 0.00 | 0.20 | 0.20 | 83 | 1006.1 |
| 20260506170039 | 66 | 186 | 7.0 | 17.4 | 0.00 | 0.20 | 0.20 | 83 | 1006.0 |
| 20260506165540 | 66 | 211 | 6.1 | 17.4 | 0.00 | 0.20 | 0.20 | 83 | 1006.1 |
| 20260506164538 | 66 | 183 | 6.1 | 16.5 | 0.00 | 0.20 | 0.20 | 85 | 1005.9 |
| 20260506164037 | 65 | 215 | 6.1 | 14.8 | 0.00 | 0.20 | 0.20 | 86 | 1006.1 |
| 20260506163533 | 65 | 212 | 6.1 | 14.8 | 0.00 | 0.20 | 0.20 | 86 | 1006.1 |
| 20260506163032 | 65 | 204 | 7.0 | 19.1 | 0.00 | 0.20 | 0.20 | 87 | 1006.1 |
| 20260506162532 | 65 | 186 | 6.1 | 19.1 | 0.00 | 0.20 | 0.20 | 87 | 1006.1 |
| 20260506161532 | 64 | 159 | 5.2 | 16.5 | 0.02 | 0.20 | 0.20 | 88 | 1006.1 |
| 20260506160527 | 64 | 158 | 6.1 | 19.1 | 0.03 | 0.20 | 0.20 | 89 | 1006.2 |
| 20260506160027 | 64 | 312 | 6.1 | 19.1 | 0.03 | 0.20 | 0.20 | 90 | 1006.1 |
| 20260506155526 | 64 | 222 | 4.3 | 13.0 | 0.04 | 0.20 | 0.20 | 91 | 1006.2 |
| 20260506155027 | 64 | 191 | 5.2 | 14.8 | 0.04 | 0.20 | 0.20 | 91 | 1006.4 |
| 20260506154527 | 63 | 266 | 5.2 | 14.8 | 0.05 | 0.20 | 0.20 | 92 | 1006.5 |
| 20260506153521 | 63 | 192 | 4.3 | 9.6 | 0.05 | 0.20 | 0.20 | 93 | 1006.6 |
| 20260506153022 | 62 | 190 | 5.2 | 13.9 | 0.06 | 0.20 | 0.20 | 92 | 1006.5 |
| 20260506152523 | 62 | 198 | 4.3 | 13.9 | 0.06 | 0.20 | 0.20 | 92 | 1006.4 |
| 20260506151521 | 62 | 222 | 3.5 | 10.4 | 0.06 | 0.18 | 0.18 | 92 | 1006.8 |
| 20260506151021 | 62 | 200 | 4.3 | 10.4 | 0.07 | 0.17 | 0.18 | 91 | 1006.9 |
| 20260506150518 | 62 | 232 | 3.5 | 11.3 | 0.08 | 0.17 | 0.17 | 91 | 1007.0 |
| 20260506145517 | 62 | 211 | 3.5 | 10.4 | 0.08 | 0.16 | 0.17 | 91 | 1007.2 |
| 20260506144514 | 62 | 245 | 3.5 | 10.4 | 0.10 | 0.15 | 0.15 | 91 | 1007.2 |
| 20260506144015 | 62 | 176 | 4.3 | 10.4 | 0.11 | 0.15 | 0.15 | 91 | 1007.2 |
| 20260506143008 | 62 | 155 | 4.3 | 9.6 | 0.12 | 0.14 | 0.14 | 91 | 1007.3 |
| 20260506142008 | 62 | 160 | 2.6 | 7.8 | 0.12 | 0.13 | 0.13 | 90 | 1007.2 |
| 20260506141519 | 62 | 238 | 2.6 | 10.4 | 0.11 | 0.12 | 0.12 | 90 | 1007.1 |
| 20260506141008 | 62 | 187 | 3.5 | 10.4 | 0.09 | 0.10 | 0.11 | 89 | 1007.2 |
| 20260506140502 | 63 | 240 | 2.6 | 7.8 | 0.08 | 0.09 | 0.09 | 89 | 1007.4 |
| 20260506140001 | 63 | 198 | 3.5 | 7.8 | 0.08 | 0.08 | 0.08 | 89 | 1007.2 |
| 20260506135504 | 63 | 197 | 3.5 | 9.6 | 0.08 | 0.08 | 0.08 | 88 | 1007.2 |
| 20260506135002 | 63 | 187 | 3.5 | 9.6 | 0.06 | 0.06 | 0.06 | 88 | 1007.4 |
| 20260506134503 | 63 | 170 | 2.6 | 10.4 | 0.05 | 0.05 | 0.05 | 87 | 1007.4 |
| 20260506134001 | 63 | 138 | 2.6 | 10.4 | 0.04 | 0.04 | 0.04 | 86 | 1007.5 |
| 20260506133458 | 64 | 200 | 3.5 | 11.3 | 0.03 | 0.03 | 0.03 | 85 | 1007.6 |
| 20260506132958 | 64 | 27 | 3.5 | 11.3 | 0.02 | 0.02 | 0.02 | 84 | 1007.7 |
| 20260506132457 | 64 | 284 | 3.5 | 10.4 | 0.01 | 0.01 | 0.01 | 83 | 1007.7 |
| 20260506131957 | 64 | 120 | 3.5 | 10.4 | 0.01 | 0.01 | 0.01 | 83 | 1007.7 |
| 20260506131456 | 64 | 221 | 4.3 | 11.3 | 0.01 | 0.01 | 0.01 | 82 | 1007.6 |
| 20260506130958 | 64 | 193 | 3.5 | 11.3 | 0.01 | 0.01 | 0.01 | 81 | 1007.4 |